Regional Weather Roundup
Issued by NWS

Home | Current Version | Previous Version | Text Only | Print | Product List | Glossary On
Versions: 1 2 3 4 5 6 7 8 9 10 11 12 13 14 15 16 17 18 19 20 21 22 23 24 25 26 27 28 29 30 31 32 33 34 35 36 37 38 39 40 41 42 43 44 45 46 47 48 49 50
000
ASCA42 TJSJ 010210
RWRPR
PUERTO RICO/U.S. VIRGIN ISLANDS HOURLY WEATHER ROUNDUP
NATIONAL WEATHER SERVICE SAN JUAN PR
1000 PM AST FRI JUL 31 2015

PRZ001-004-010300-
PUERTO RICO

CITY           SKY/WX    TMP DP  RH WIND       PRES   REMARKS
SAN JUAN LMM   PTCLDY    81  75  83 E10       30.06R
PONCE          PTCLDY    82  72  69 CALM      29.99R
$$

PRZ006-007-010300-
U.S. VIRGIN ISLANDS

CITY           SKY/WX    TMP DP  RH WIND       PRES   REMARKS
CHARLOTTE AMA  CLEAR     84  73  70 E12       30.05R HX  91
CHRISTIANSTED  PTCLDY    82  72  69 E18       30.05R
$$

HOURLY WEATHER ROUNDUP FOR THE NEWS MEDIA

CITY           SKY/WX    TMP DP  RH WIND       PRES   REMARKS
ORLANDO        CLOUDY    78  73  84 S9        30.00R
NEW YORK       CLEAR     83  52  34 W8        29.83R
NEWARK         PTCLDY    84  56  38 SW7       29.82R
CHICAGO        PTCLDY    76  49  38 NW9       29.96R
HARTFORD       CLEAR     68  64  87 CALM      29.80R
BOSTON         CLEAR     80  55  42 W8        29.79R
DALLAS         CLOUDY    91  64  40 E5        30.02R HX  92
PHILADELPHIA   CLEAR     82  61  48 SW7       29.86R
LOS ANGELES    MOSUNNY   72  66  81 W15       29.94F
WASHINGTON DC  CLEAR     73  63  70 SW5       29.90R



USA.gov is the U.S. government's official web portal to all federal, state and local government web resources and services.